This is the latest recevied weather packets stored in our database for station/object IZ3VCM. If no packets are shown the sender has not sent any weather packets the latest 10 day(s).
| Time | Temp. | Humidity | Pressure | Rain* | Wind** | Luminosity | Snow |
|---|---|---|---|---|---|---|---|
| 1777932904 | 16.11° C | 69% | 1014.7 hPa | 0 mm | - | - | - |
| 1777932006 | 16.11° C | 68% | 1014.8 hPa | 0 mm | - | - | - |
| 1777931105 | 16.67° C | 67% | 1014.9 hPa | 0 mm | - | - | - |
| 1777930206 | 16.67° C | 66% | 1015 hPa | 0 mm | - | - | - |
| 1777929305 | 16.67° C | 66% | 1015.1 hPa | 0 mm | - | - | - |
| 1777928407 | 17.22° C | 64% | 1015.3 hPa | 0 mm | - | - | - |
| 1777927503 | 17.78° C | 63% | 1015.3 hPa | 0 mm | - | - | - |
| 1777926606 | 17.78° C | 62% | 1015.2 hPa | 0 mm | - | - | - |
| 1777925705 | 18.33° C | 61% | 1015.1 hPa | 0 mm | - | - | - |
| 1777924806 | 18.33° C | 60% | 1015 hPa | 0 mm | - | - | - |
| 1777923904 | 18.33° C | 59% | 1015 hPa | 0 mm | - | - | - |
| 1777923006 | 18.33° C | 58% | 1014.9 hPa | 0 mm | - | - | - |
| 1777922104 | 18.89° C | 56% | 1014.8 hPa | 0 mm | - | - | - |
| 1777921206 | 19.44° C | 55% | 1014.7 hPa | 0 mm | - | - | - |
| 1777920303 | 20.56° C | 52% | 1014.7 hPa | 0 mm | - | - | - |
| 1777919406 | 20.56° C | 52% | 1014.6 hPa | 0 mm | - | - | - |
| 1777918504 | 21.67° C | 49% | 1014.6 hPa | 0 mm | - | - | - |
| 1777917605 | 22.22° C | 48% | 1014.4 hPa | 0 mm | - | - | - |
| 1777916704 | 23.33° C | 45% | 1014.3 hPa | 0 mm | - | - | - |
| 1777915806 | 25° C | 42% | 1014.2 hPa | 0 mm | - | - | - |
| 1777914905 | 27.78° C | 31% | 1014.1 hPa | 0 mm | - | - | - |
| 1777914006 | 27.78° C | 30% | 1014.2 hPa | 0 mm | - | - | - |
| 1777913104 | 28.33° C | 30% | 1014.3 hPa | 0 mm | - | - | - |
| 1777912206 | 26.67° C | 31% | 1014.4 hPa | 0 mm | - | - | - |
| 1777911304 | 26.67° C | 32% | 1014.4 hPa | 0 mm | - | - | - |
* Rain latest hour (hover to see other rain measurements)
** Current wind speed in m/s (hover to see current wind gust speed)